Date String (YYYY-MM-DD hh:mm:ss) UTC,Instrument flags,Ambient pressure (hPa),Sample flow (lpm),Bypass flow (lpm),Sample temperature (°C),Ambient temperature (°C),ASC tube jacket temperature (°C),LED temperature (°C),Box temperature (°C),Sample RH (%),Span deviation,Mass concentration (μg/m³),Mass concentration (μg/m³),Mass concentration (μg/m³)
DateTimeUTC,F1_M11,P_M11,Q1_M11,Q2_M11,T1_M11,T2_M11,T3_M11,T4_M11,T5_M11,U1_M11,ZSPAN_M11,X0_M11,X2_M11,X1_M11
2022-03-04 06:00:00,,0822.3,4.99,0.00,29.5,28.6,00.0,38.5,31.3,12.3,0000.9,0029.65,0013.43,0011.09
2022-03-04 06:01:00,,0822.2,5.02,0.00,29.5,28.6,00.0,38.5,31.2,12.4,0001.1,0029.44,0013.32,0011.04
2022-03-04 06:02:00,,0822.2,4.98,0.00,29.5,28.6,00.0,38.5,31.2,12.3,0000.6,0029.43,0013.26,0010.98
2022-03-04 06:03:00,,0822.2,5.00,0.00,29.5,28.6,00.0,38.5,31.2,12.3,0000.2,0029.14,0013.25,0010.93
2022-03-04 06:04:00,,0822.2,5.02,0.00,29.5,28.6,00.0,38.5,31.2,12.3,-000.0,0029.07,0013.16,0010.89
2022-03-04 06:05:00,,0822.2,4.99,0.00,29.5,28.6,00.0,38.5,31.2,12.1,0000.1,0029.08,0013.00,0010.83
2022-03-04 06:06:00,,0822.1,5.01,0.00,29.5,28.6,00.0,38.5,31.2,12.0,0000.3,0029.02,0012.91,0010.75
2022-03-04 06:07:00,,0822.1,5.00,0.00,29.5,28.6,00.0,38.5,31.2,12.0,0000.7,0029.17,0012.89,0010.71
2022-03-04 06:08:00,,0822.1,4.99,0.00,29.5,28.6,00.0,38.5,31.2,12.0,0001.1,0029.44,0012.83,0010.67
2022-03-04 06:09:00,,0822.1,5.02,0.00,29.5,28.6,00.0,38.5,31.2,11.9,0001.3,0029.00,0012.83,0010.63
2022-03-04 06:10:00,,0822.1,4.99,0.00,29.4,28.6,00.0,38.5,31.2,11.9,0001.3,0028.25,0012.72,0010.56
2022-03-04 06:11:00,,0822.1,5.00,0.00,29.4,28.5,00.0,38.5,31.2,11.9,0001.6,0028.74,0012.66,0010.50
2022-03-04 06:12:00,,0822.2,5.00,0.00,29.5,28.6,00.0,38.5,31.2,11.9,0001.7,0027.90,0012.61,0010.46
2022-03-04 06:13:00,,0822.1,4.99,0.00,29.5,28.6,00.0,38.5,31.2,11.9,0002.0,0026.83,0012.60,0010.44
2022-03-04 06:14:00,,0822.1,5.01,0.00,29.4,28.6,00.0,38.5,31.2,11.9,0002.0,0026.97,0012.56,0010.40
2022-03-04 06:15:00,,0822.1,5.01,0.00,29.4,28.5,00.0,38.5,31.2,12.0,0001.7,0027.19,0012.48,0010.35
2022-03-04 06:16:00,,0822.0,4.99,0.00,29.4,28.6,00.0,38.4,31.2,12.0,0001.3,0026.34,0012.44,0010.31
2022-03-04 06:17:00,,0822.0,5.01,0.00,29.4,28.6,00.0,38.4,31.2,12.1,0001.3,0026.67,0012.43,0010.32
2022-03-04 06:18:00,,0822.1,5.00,0.00,29.4,28.6,00.0,38.4,31.2,12.1,0001.4,0027.04,0012.43,0010.34
2022-03-04 06:19:00,,0822.0,4.99,0.00,29.4,28.6,00.0,38.4,31.2,12.2,0001.8,0027.23,0012.50,0010.36
2022-03-04 06:20:00,,0822.0,5.01,0.00,29.4,28.6,00.0,38.4,31.2,12.2,0001.5,0027.81,0012.53,0010.39
2022-03-04 06:21:00,,0822.1,4.98,0.00,29.4,28.5,00.0,38.4,31.2,12.1,0001.0,0028.17,0012.58,0010.44
2022-03-04 06:22:00,,0822.1,5.01,0.00,29.4,28.5,00.0,38.4,31.2,12.1,0000.7,0028.09,0012.62,0010.50
2022-03-04 06:23:00,,0821.9,4.99,0.00,29.4,28.5,00.0,38.4,31.2,12.1,0000.3,0028.10,0012.67,0010.52
2022-03-04 06:24:00,,0821.9,5.00,0.00,29.4,28.5,00.0,38.4,31.2,12.1,-000.5,0029.69,0012.70,0010.56
2022-03-04 06:25:00,,0821.8,5.00,0.00,29.4,28.5,00.0,38.4,31.2,12.2,-000.1,0030.19,0012.73,0010.60
2022-03-04 06:26:00,,0822.0,4.99,0.00,29.4,28.5,00.0,38.4,31.1,12.2,0000.7,0029.81,0012.88,0010.67
2022-03-04 06:27:00,,0822.1,5.02,0.00,29.4,28.5,00.0,38.4,31.1,12.2,0000.8,0029.68,0012.95,0010.72
2022-03-04 06:28:00,,0822.1,4.99,0.00,29.4,28.5,00.0,38.4,31.1,12.1,0000.4,0029.34,0013.01,0010.78
2022-03-04 06:29:00,,0822.1,5.01,0.00,29.4,28.5,00.0,38.4,31.1,12.1,0000.4,0029.18,0013.03,0010.81
2022-03-04 06:30:00,,0822.1,5.00,0.00,29.4,28.5,00.0,38.4,31.1,12.2,-000.2,0029.13,0013.00,0010.86
2022-03-04 06:31:00,,0822.1,4.99,0.00,29.4,28.5,00.0,38.4,31.1,12.3,-000.3,0029.31,0013.02,0010.89
2022-03-04 06:32:00,,0822.1,5.01,0.00,29.3,28.5,00.0,38.4,31.1,12.3,0000.1,0030.38,0013.09,0010.95
2022-03-04 06:33:00,,0822.1,5.01,0.00,29.3,28.4,00.0,38.4,31.1,12.2,-000.2,0032.30,0013.19,0011.02
2022-03-04 06:34:00,,0822.0,4.98,0.00,29.3,28.4,00.0,38.3,31.1,12.2,0000.4,0033.51,0013.30,0011.09
2022-03-04 06:35:00,,0822.0,5.00,0.00,29.3,28.4,00.0,38.3,31.1,12.2,0000.8,0032.98,0013.38,0011.12
2022-03-04 06:36:00,,0822.1,5.02,0.00,29.3,28.4,00.0,38.3,31.1,12.2,0000.1,0032.60,0013.50,0011.18
2022-03-04 06:37:00,,0822.1,4.99,0.00,29.3,28.4,00.0,38.3,31.1,12.2,-000.2,0032.83,0013.58,0011.24
2022-03-04 06:38:00,,0822.1,5.01,0.00,29.3,28.4,00.0,38.3,31.1,12.2,0000.2,0034.20,0013.73,0011.29
2022-03-04 06:39:00,,0822.1,5.00,0.00,29.3,28.4,00.0,38.3,31.1,12.2,0000.6,0034.30,0013.81,0011.34
2022-03-04 06:40:00,,0821.9,4.99,0.00,29.3,28.4,00.0,38.3,31.1,12.2,0000.6,0033.96,0013.96,0011.40
2022-03-04 06:41:00,,0822.0,5.02,0.00,29.3,28.4,00.0,38.3,31.1,12.1,0000.8,0034.12,0014.08,0011.44
2022-03-04 06:42:00,,0821.8,4.98,0.00,29.3,28.4,00.0,38.3,31.0,12.1,0000.8,0033.82,0014.10,0011.49
2022-03-04 06:43:00,,0821.8,4.99,0.00,29.3,28.4,00.0,38.3,31.0,12.1,0000.4,0033.26,0014.17,0011.52
2022-03-04 06:44:00,,0821.9,5.02,0.00,29.3,28.4,00.0,38.3,31.0,12.2,0000.6,0031.41,0014.15,0011.50
2022-03-04 06:45:00,,0821.9,4.99,0.00,29.3,28.4,00.0,38.3,31.0,12.1,0000.3,0030.77,0014.13,0011.51
2022-03-04 06:46:00,,0821.9,5.00,0.00,29.3,28.3,00.0,38.3,31.0,12.1,0000.4,0031.60,0014.18,0011.55
2022-03-04 06:47:00,,0821.7,5.02,0.00,29.2,28.3,00.0,38.3,31.0,12.1,0000.7,0031.34,0014.14,0011.56
2022-03-04 06:48:00,,0821.8,5.00,0.00,29.2,28.3,00.0,38.2,31.0,12.1,0000.8,0031.24,0014.16,0011.58
2022-03-04 06:49:00,,0821.8,4.99,0.00,29.2,28.3,00.0,38.2,31.0,12.1,0000.8,0031.10,0014.13,0011.61
2022-03-04 06:50:00,,0821.8,5.02,0.00,29.2,28.3,00.0,38.2,31.0,12.1,0000.4,0031.29,0014.14,0011.61
2022-03-04 06:51:00,,0821.8,4.99,0.00,29.2,28.3,00.0,38.2,31.0,12.1,0000.2,0031.30,0014.11,0011.62
2022-03-04 06:52:00,,0821.8,4.98,0.00,29.2,28.3,00.0,38.2,31.0,12.1,-000.5,0030.79,0014.07,0011.61
2022-03-04 06:53:00,,0821.8,5.00,0.00,29.2,28.3,00.0,38.2,31.0,12.1,-000.2,0030.99,0014.15,0011.62
2022-03-04 06:54:00,,0821.9,5.00,0.00,29.2,28.3,00.0,38.2,31.0,12.1,0000.2,0030.72,0014.10,0011.63
2022-03-04 06:55:00,,0822.0,4.99,0.00,29.2,28.3,00.0,38.2,31.0,12.1,-000.1,0030.78,0014.13,0011.62
2022-03-04 06:56:00,,0821.8,5.02,0.00,29.2,28.3,00.0,38.2,31.0,12.1,0000.1,0031.49,0014.21,0011.62
2022-03-04 06:57:00,,0821.8,4.98,0.00,29.2,28.3,00.0,38.2,31.0,12.1,0000.5,0030.30,0014.17,0011.61
2022-03-04 06:58:00,,0821.9,5.00,0.00,29.2,28.3,00.0,38.2,31.0,12.1,0000.8,0030.46,0014.18,0011.62
2022-03-04 06:59:00,,0821.9,4.99,0.00,29.2,28.3,00.0,38.2,30.9,12.1,0001.1,0031.01,0014.19,0011.61
